Time,TemperatureF,DewpointF,PressureIn,WindDirection,WindDirectionDegrees,WindSpeedMPH,WindSpeedGustMPH,Humidity,HourlyPrecipIn,Conditions,Clouds,dailyrainin,SoftwareType,DateUTC
2013-02-07 00:00:00,50.4,46.5,30.24,SE,140,1.7,0.0,86,0.00,,,0.00,WeatherCatV1.15B25,2013-02-07 08:00:00,
2013-02-07 00:04:00,44.1,42.4,29.93,SSE,157,0.0,0.0,94,0.04,,,0.00,LWC V2.11 B50,2013-02-07 08:04:00,
2013-02-07 00:05:00,50.4,46.5,30.24,SE,140,1.7,0.0,86,0.00,,,0.00,WeatherCatV1.15B25,2013-02-07 08:05:00,
2013-02-07 00:09:00,43.9,42.3,29.94,NE,45,0.0,0.0,94,0.04,,,0.00,LWC V2.11 B50,2013-02-07 08:09:00,
2013-02-07 00:10:00,50.4,46.5,30.24,SE,140,1.7,0.0,86,0.00,,,0.00,WeatherCatV1.15B25,2013-02-07 08:10:00,
2013-02-07 00:14:00,43.9,42.3,29.94,ESE,112,0.0,0.0,94,0.06,,,0.00,LWC V2.11 B50,2013-02-07 08:14:00,
2013-02-07 00:15:00,50.4,46.5,30.24,SE,140,1.7,0.0,86,0.00,,,0.00,WeatherCatV1.15B25,2013-02-07 08:15:00,
2013-02-07 00:19:00,43.9,42.3,29.94,SE,135,0.0,0.0,94,0.06,,,0.00,LWC V2.11 B50,2013-02-07 08:19:00,
2013-02-07 00:20:00,50.4,46.5,30.24,SE,140,1.7,0.0,86,0.00,,,0.00,WeatherCatV1.15B25,2013-02-07 08:20:00,
2013-02-07 00:24:00,43.9,42.3,29.94,South,180,1.8,1.8,94,0.06,,,0.00,LWC V2.11 B50,2013-02-07 08:24:00,
2013-02-07 00:25:00,50.4,46.5,30.24,SE,140,1.7,0.0,86,0.00,,,0.00,WeatherCatV1.15B25,2013-02-07 08:25:00,
2013-02-07 00:29:00,43.9,42.3,29.95,South,180,2.0,2.0,94,0.04,,,0.00,LWC V2.11 B50,2013-02-07 08:29:00,
2013-02-07 00:30:00,50.4,46.5,30.24,SE,140,1.7,0.0,86,0.00,,,0.00,WeatherCatV1.15B25,2013-02-07 08:30:00,
2013-02-07 00:34:00,44.1,42.4,29.95,SSW,202,3.8,4.5,94,0.04,,,0.00,LWC V2.11 B50,2013-02-07 08:34:00,
2013-02-07 00:35:00,50.4,46.5,30.24,SE,140,1.7,0.0,86,0.00,,,0.00,WeatherCatV1.15B25,2013-02-07 08:35:00,
2013-02-07 00:39:00,44.2,42.6,29.96,SW,225,4.7,4.7,94,0.04,,,0.00,LWC V2.11 B50,2013-02-07 08:39:00,
2013-02-07 00:40:00,50.4,46.5,30.24,SE,140,1.7,0.0,86,0.00,,,0.00,WeatherCatV1.15B25,2013-02-07 08:40:00,
2013-02-07 00:44:00,44.2,42.9,29.96,WSW,247,6.5,6.5,95,0.06,,,0.00,LWC V2.11 B50,2013-02-07 08:44:00,
2013-02-07 00:45:00,50.4,46.5,30.24,SE,140,1.7,0.0,86,0.00,,,0.00,WeatherCatV1.15B25,2013-02-07 08:45:00,
2013-02-07 00:49:00,44.2,42.9,29.96,SW,225,9.8,9.8,95,0.04,,,0.00,LWC V2.11 B50,2013-02-07 08:49:00,
2013-02-07 00:50:00,50.4,46.5,30.24,SE,140,1.7,0.0,86,0.00,,,0.00,WeatherCatV1.15B25,2013-02-07 08:50:00,
2013-02-07 00:54:00,44.2,42.9,29.97,SW,225,8.1,8.1,95,0.04,,,0.00,LWC V2.11 B50,2013-02-07 08:54:00,
2013-02-07 00:55:00,50.4,46.5,30.24,SE,140,1.7,0.0,86,0.00,,,0.00,WeatherCatV1.15B25,2013-02-07 08:55:00,
2013-02-07 01:00:00,43.9,42.5,29.97,SSW,202,2.2,9.2,95,0.04,,,0.00,LWC V2.11 B50,2013-02-07 09:00:00,
2013-02-07 01:05:00,43.9,42.5,29.96,SSW,202,5.8,5.8,95,0.04,,,0.04,LWC V2.11 B50,2013-02-07 09:05:00,
2013-02-07 01:10:00,43.7,41.9,29.97,SW,225,1.1,1.1,95,0.04,,,0.04,LWC V2.11 B50,2013-02-07 09:10:00,
2013-02-07 01:15:00,43.5,41.9,29.98,South,180,0.9,0.9,94,0.02,,,0.04,LWC V2.11 B50,2013-02-07 09:15:00,
2013-02-07 01:20:00,43.5,41.9,29.97,SW,225,4.5,4.5,94,0.02,,,0.04,LWC V2.11 B50,2013-02-07 09:20:00,
2013-02-07 01:25:00,43.5,41.9,29.97,SW,225,5.1,6.9,94,0.02,,,0.04,LWC V2.11 B50,2013-02-07 09:25:00,
2013-02-07 01:30:00,43.3,41.7,29.98,SSE,157,2.5,4.0,94,0.02,,,0.04,LWC V2.11 B50,2013-02-07 09:30:00,
2013-02-07 01:35:00,43.3,41.7,29.98,SE,135,0.0,0.0,94,0.04,,,0.06,LWC V2.11 B50,2013-02-07 09:35:00,
2013-02-07 01:40:00,-999.0,41.5,29.98,SSW,202,4.7,5.1,94,0.02,,,0.06,LWC V2.11 B50,2013-02-07 09:40:00,
2013-02-07 01:45:00,43.2,41.5,29.98,SW,225,0.0,11.6,94,0.02,,,0.06,LWC V2.11 B50,2013-02-07 09:45:00,
2013-02-07 01:50:00,43.2,41.5,29.98,WSW,247,6.0,6.0,94,0.02,,,0.06,LWC V2.11 B50,2013-02-07 09:50:00,
2013-02-07 01:55:00,43.0,41.4,29.98,SSW,202,3.8,5.4,94,0.02,,,0.06,LWC V2.11 B50,2013-02-07 09:55:00,
2013-02-07 02:00:00,43.0,41.4,29.98,SW,225,4.7,4.7,94,0.02,,,0.06,LWC V2.11 B50,2013-02-07 10:00:00,
2013-02-07 02:05:00,43.0,41.4,29.98,South,180,3.1,3.1,94,0.02,,,0.06,LWC V2.11 B50,2013-02-07 10:05:00,
2013-02-07 02:10:00,42.8,41.2,29.98,SSW,202,2.5,3.4,94,0.02,,,0.06,LWC V2.11 B50,2013-02-07 10:10:00,
2013-02-07 02:15:00,50.4,46.5,30.24,SE,140,1.7,0.0,86,0.00,,,0.00,WeatherCatV1.15B25,2013-02-07 10:15:00,
2013-02-07 02:20:00,42.6,40.7,29.99,SSW,212,3.4,4.9,93,0.02,,,0.00,LWC V2.11 B50,2013-02-07 10:20:00,
2013-02-07 02:25:00,42.6,40.7,29.99,SSE,157,2.5,2.5,93,0.02,,,0.06,LWC V2.11 B50,2013-02-07 10:25:00,
2013-02-07 02:30:00,42.6,40.7,30.00,SE,145,0.0,4.9,93,0.00,,,0.00,LWC V2.11 B50,2013-02-07 10:30:00,
2013-02-07 02:35:00,50.4,46.5,30.24,SE,140,1.7,0.0,86,0.00,,,0.00,WeatherCatV1.15B25,2013-02-07 10:35:00,
2013-02-07 02:40:00,42.4,40.5,30.00,SSE,162,1.6,11.0,93,0.00,,,0.00,LWC V2.11 B50,2013-02-07 10:40:00,
2013-02-07 02:45:00,50.4,46.5,30.24,SE,140,1.7,0.0,86,0.00,,,0.00,WeatherCatV1.15B25,2013-02-07 10:45:00,
2013-02-07 02:50:00,42.4,40.5,30.01,South,170,0.0,11.0,93,0.00,,,0.00,LWC V2.11 B50,2013-02-07 10:50:00,
2013-02-07 02:55:00,50.4,46.5,30.24,SE,140,1.7,0.0,86,0.00,,,0.00,WeatherCatV1.15B25,2013-02-07 10:55:00,
2013-02-07 03:00:00,42.4,40.5,30.00,SSE,150,0.0,11.0,93,0.00,,,0.00,LWC V2.11 B50,2013-02-07 11:00:00,
2013-02-07 03:05:00,50.4,46.5,30.24,SE,140,1.7,0.0,86,0.00,,,0.00,WeatherCatV1.15B25,2013-02-07 11:05:00,
2013-02-07 03:10:00,42.4,40.5,30.00,SSE,150,0.9,5.8,93,0.00,,,0.00,LWC V2.11 B50,2013-02-07 11:10:00,
2013-02-07 03:15:00,50.4,46.5,30.24,SE,140,1.7,0.0,86,0.00,,,0.00,WeatherCatV1.15B25,2013-02-07 11:15:00,
2013-02-07 03:20:00,42.4,40.5,30.00,South,174,0.0,5.8,93,0.00,,,0.00,LWC V2.11 B50,2013-02-07 11:20:00,
2013-02-07 03:25:00,50.4,46.5,30.24,SE,140,1.7,0.0,86,0.00,,,0.00,WeatherCatV1.15B25,2013-02-07 11:25:00,
2013-02-07 03:30:00,42.1,40.2,30.00,South,181,0.1,5.8,93,0.00,,,0.00,LWC V2.11 B50,2013-02-07 11:30:00,
2013-02-07 03:35:00,50.4,46.5,30.24,SE,140,1.7,0.0,86,0.00,,,0.00,WeatherCatV1.15B25,2013-02-07 11:35:00,
2013-02-07 03:40:00,42.1,40.2,30.01,South,174,8.3,10.5,93,0.00,,,0.00,LWC V2.11 B50,2013-02-07 11:40:00,
2013-02-07 03:45:00,50.4,46.5,30.24,SE,140,1.7,0.0,86,0.00,,,0.00,WeatherCatV1.15B25,2013-02-07 11:45:00,
2013-02-07 03:50:00,42.1,40.2,30.01,SE,140,2.7,10.5,93,0.00,,,0.00,LWC V2.11 B50,2013-02-07 11:50:00,
2013-02-07 03:55:00,50.4,46.5,30.24,SE,140,1.7,0.0,86,0.00,,,0.00,WeatherCatV1.15B25,2013-02-07 11:55:00,
2013-02-07 04:00:00,42.1,39.9,30.01,SSW,202,4.4,10.5,92,0.00,,,0.00,LWC V2.11 B50,2013-02-07 12:00:00,
2013-02-07 04:05:00,50.4,46.5,30.24,SE,140,1.7,0.0,86,0.00,,,0.00,WeatherCatV1.15B25,2013-02-07 12:05:00,
2013-02-07 04:10:00,42.1,39.9,30.02,SSW,203,1.0,6.5,92,0.00,,,0.00,LWC V2.11 B50,2013-02-07 12:10:00,
2013-02-07 04:15:00,50.4,46.5,30.24,SE,140,1.7,0.0,86,0.00,,,0.00,WeatherCatV1.15B25,2013-02-07 12:15:00,
2013-02-07 04:20:00,41.9,39.7,30.03,South,189,3.4,6.5,92,0.00,,,0.00,LWC V2.11 B50,2013-02-07 12:20:00,
2013-02-07 04:25:00,50.4,46.5,30.24,SE,140,1.7,0.0,86,0.00,,,0.00,WeatherCatV1.15B25,2013-02-07 12:25:00,
2013-02-07 04:30:00,50.4,46.5,30.24,SE,140,1.7,0.0,86,0.00,,,0.00,WeatherCatV1.15B25,2013-02-07 12:30:00,
2013-02-07 04:32:00,41.9,39.7,30.03,SW,225,6.3,6.3,92,0.00,,,0.06,LWC V2.11 B50,2013-02-07 12:32:00,
2013-02-07 04:35:00,50.4,46.5,30.24,SE,140,1.7,0.0,86,0.00,,,0.00,WeatherCatV1.15B25,2013-02-07 12:35:00,
2013-02-07 04:38:00,41.7,39.6,30.03,South,180,1.3,1.3,92,0.00,,,0.06,LWC V2.11 B50,2013-02-07 12:38:00,
2013-02-07 04:40:00,50.4,46.5,30.24,SE,140,1.7,0.0,86,0.00,,,0.00,WeatherCatV1.15B25,2013-02-07 12:40:00,
2013-02-07 04:43:00,41.5,39.4,30.04,SW,225,5.1,6.0,92,0.00,,,0.06,LWC V2.11 B50,2013-02-07 12:43:00,
2013-02-07 04:45:00,50.4,46.5,30.24,SE,140,1.7,0.0,86,0.00,,,0.00,WeatherCatV1.15B25,2013-02-07 12:45:00,
2013-02-07 04:48:00,41.5,39.4,30.04,South,180,4.5,4.5,92,0.00,,,0.06,LWC V2.11 B50,2013-02-07 12:48:00,
2013-02-07 04:50:00,50.4,46.5,30.24,SE,140,1.7,0.0,86,0.00,,,0.00,WeatherCatV1.15B25,2013-02-07 12:50:00,
2013-02-07 04:53:00,41.5,39.4,30.04,SSW,202,2.0,5.6,92,0.00,,,0.06,LWC V2.11 B50,2013-02-07 12:53:00,
2013-02-07 04:55:00,50.4,46.5,30.24,SE,140,1.7,0.0,86,0.00,,,0.00,WeatherCatV1.15B25,2013-02-07 12:55:00,
2013-02-07 04:58:00,41.5,39.4,30.04,SSW,202,11.2,11.2,92,0.00,,,0.06,LWC V2.11 B50,2013-02-07 12:58:00,
2013-02-07 05:00:00,50.4,46.5,30.24,SE,140,1.7,0.0,86,0.00,,,0.00,WeatherCatV1.15B25,2013-02-07 13:00:00,
2013-02-07 05:03:00,41.7,39.6,30.04,SW,225,7.6,7.6,92,0.00,,,0.06,LWC V2.11 B50,2013-02-07 13:03:00,
2013-02-07 05:05:00,50.4,46.5,30.24,SE,140,1.7,0.0,86,0.00,,,0.00,WeatherCatV1.15B25,2013-02-07 13:05:00,
2013-02-07 05:08:00,41.7,39.3,30.04,SSE,157,13.2,13.2,91,0.00,,,0.06,LWC V2.11 B50,2013-02-07 13:08:00,
2013-02-07 05:10:00,50.4,46.5,30.24,SE,140,1.7,0.0,86,0.00,,,0.00,WeatherCatV1.15B25,2013-02-07 13:10:00,
2013-02-07 05:13:00,41.7,39.3,30.05,South,180,6.0,6.0,91,0.00,,,0.06,LWC V2.11 B50,2013-02-07 13:13:00,
2013-02-07 05:15:00,50.4,46.5,30.24,SE,140,1.7,0.0,86,0.00,,,0.00,WeatherCatV1.15B25,2013-02-07 13:15:00,
2013-02-07 05:18:00,41.7,39.3,30.05,SSE,157,3.6,3.6,91,0.00,,,0.06,LWC V2.11 B50,2013-02-07 13:18:00,
2013-02-07 05:20:00,50.4,46.5,30.24,SE,140,1.7,0.0,86,0.00,,,0.00,WeatherCatV1.15B25,2013-02-07 13:20:00,
2013-02-07 05:24:00,41.7,39.3,30.05,WSW,247,4.9,4.9,91,0.00,,,0.06,LWC V2.11 B50,2013-02-07 13:24:00,
2013-02-07 05:25:00,50.4,46.5,30.24,SE,140,1.7,0.0,86,0.00,,,0.00,WeatherCatV1.15B25,2013-02-07 13:25:00,
2013-02-07 05:29:00,41.7,39.3,30.05,SW,225,11.4,11.4,91,0.00,,,0.06,LWC V2.11 B50,2013-02-07 13:29:00,
2013-02-07 05:30:00,50.4,46.5,30.24,SE,140,1.7,0.0,86,0.00,,,0.00,WeatherCatV1.15B25,2013-02-07 13:30:00,
2013-02-07 05:34:00,41.7,39.3,30.05,SSW,202,4.2,6.7,91,0.00,,,0.06,LWC V2.11 B50,2013-02-07 13:34:00,
2013-02-07 05:35:00,50.4,46.5,30.24,SE,140,1.7,0.0,86,0.00,,,0.00,WeatherCatV1.15B25,2013-02-07 13:35:00,
2013-02-07 05:39:00,41.7,39.6,30.06,SSW,202,6.3,6.3,92,0.00,,,0.06,LWC V2.11 B50,2013-02-07 13:39:00,
2013-02-07 05:40:00,50.4,46.5,30.24,SE,140,1.7,0.0,86,0.00,,,0.00,WeatherCatV1.15B25,2013-02-07 13:40:00,
2013-02-07 05:44:00,41.7,39.6,30.06,SSW,202,6.9,6.9,92,0.00,,,0.06,LWC V2.11 B50,2013-02-07 13:44:00,
2013-02-07 05:45:00,50.4,46.5,30.24,SE,140,1.7,0.0,86,0.00,,,0.00,WeatherCatV1.15B25,2013-02-07 13:45:00,
2013-02-07 05:49:00,41.7,39.6,30.06,SSE,157,5.1,5.1,92,0.00,,,0.06,LWC V2.11 B50,2013-02-07 13:49:00,
2013-02-07 05:50:00,50.4,46.5,30.24,SE,140,1.7,0.0,86,0.00,,,0.00,WeatherCatV1.15B25,2013-02-07 13:50:00,
2013-02-07 05:54:00,41.7,39.6,30.07,ESE,112,0.0,4.2,92,0.00,,,0.06,LWC V2.11 B50,2013-02-07 13:54:00,
2013-02-07 05:55:00,50.4,46.5,30.24,SE,140,1.7,0.0,86,0.00,,,0.00,WeatherCatV1.15B25,2013-02-07 13:55:00,
2013-02-07 05:59:00,41.5,39.1,30.07,SW,225,5.8,5.8,91,0.00,,,0.06,LWC V2.11 B50,2013-02-07 13:59:00,
2013-02-07 06:00:00,50.4,46.5,30.24,SE,140,1.7,0.0,86,0.00,,,0.00,WeatherCatV1.15B25,2013-02-07 14:00:00,
2013-02-07 06:04:00,41.4,38.9,30.07,WSW,247,5.1,7.6,91,0.00,,,0.06,LWC V2.11 B50,2013-02-07 14:04:00,
2013-02-07 06:05:00,50.4,46.5,30.24,SE,140,1.7,0.0,86,0.00,,,0.00,WeatherCatV1.15B25,2013-02-07 14:05:00,
2013-02-07 06:09:00,41.4,38.9,30.06,SW,225,4.7,5.1,91,0.00,,,0.06,LWC V2.11 B50,2013-02-07 14:09:00,
2013-02-07 06:10:00,50.4,46.5,30.24,SE,140,1.7,0.0,86,0.00,,,0.00,WeatherCatV1.15B25,2013-02-07 14:10:00,
2013-02-07 06:14:00,41.4,38.9,30.07,SW,225,4.5,4.5,91,0.00,,,0.06,LWC V2.11 B50,2013-02-07 14:14:00,
2013-02-07 06:15:00,50.4,46.5,30.24,SE,140,1.7,0.0,86,0.00,,,0.00,WeatherCatV1.15B25,2013-02-07 14:15:00,
2013-02-07 06:19:00,41.4,38.9,30.07,SSW,202,5.1,5.1,91,0.00,,,0.06,LWC V2.11 B50,2013-02-07 14:19:00,
2013-02-07 06:20:00,50.4,46.5,30.24,SE,140,1.7,0.0,86,0.00,,,0.00,WeatherCatV1.15B25,2013-02-07 14:20:00,
2013-02-07 06:24:00,41.4,38.9,30.07,SW,225,4.0,4.0,91,0.00,,,0.06,LWC V2.11 B50,2013-02-07 14:24:00,
2013-02-07 06:25:00,50.4,46.5,30.24,SE,140,1.7,0.0,86,0.00,,,0.00,WeatherCatV1.15B25,2013-02-07 14:25:00,
2013-02-07 06:29:00,41.4,38.9,30.07,South,180,0.0,2.5,91,0.00,,,0.06,LWC V2.11 B50,2013-02-07 14:29:00,
2013-02-07 06:30:00,50.4,46.5,30.24,SE,140,1.7,0.0,86,0.00,,,0.00,WeatherCatV1.15B25,2013-02-07 14:30:00,
2013-02-07 06:34:00,41.4,38.9,30.08,SW,225,7.6,7.6,91,0.00,,,0.06,LWC V2.11 B50,2013-02-07 14:34:00,
2013-02-07 06:35:00,50.4,46.5,30.24,SE,140,1.7,0.0,86,0.00,,,0.00,WeatherCatV1.15B25,2013-02-07 14:35:00,
2013-02-07 06:40:00,41.2,38.8,30.07,SSE,157,6.7,6.7,91,0.00,,,0.06,LWC V2.11 B50,2013-02-07 14:40:00,
2013-02-07 06:45:00,41.2,38.8,30.07,SE,135,3.4,5.1,91,0.00,,,0.06,LWC V2.11 B50,2013-02-07 14:45:00,
2013-02-07 06:50:00,41.2,38.8,30.07,WSW,247,7.4,7.4,91,0.00,,,0.06,LWC V2.11 B50,2013-02-07 14:50:00,
2013-02-07 06:55:00,41.4,38.9,30.08,WSW,247,3.6,3.6,91,0.00,,,0.06,LWC V2.11 B50,2013-02-07 14:55:00,
2013-02-07 07:00:00,41.4,38.9,30.08,SSW,202,3.8,3.8,91,0.00,,,0.06,LWC V2.11 B50,2013-02-07 15:00:00,
2013-02-07 07:05:00,41.4,38.9,30.08,SW,225,4.5,4.5,91,0.00,,,0.06,LWC V2.11 B50,2013-02-07 15:05:00,
2013-02-07 07:10:00,41.4,39.2,30.09,WSW,247,6.5,6.5,92,0.00,,,0.06,LWC V2.11 B50,2013-02-07 15:10:00,
2013-02-07 07:15:00,41.4,39.2,30.09,WSW,247,3.4,5.6,92,0.00,,,0.06,LWC V2.11 B50,2013-02-07 15:15:00,
2013-02-07 07:20:00,41.4,39.2,30.09,WSW,247,0.9,0.9,92,0.00,,,0.06,LWC V2.11 B50,2013-02-07 15:20:00,
2013-02-07 07:25:00,41.2,39.0,30.09,South,180,1.1,3.4,92,0.00,,,0.06,LWC V2.11 B50,2013-02-07 15:25:00,
2013-02-07 07:30:00,41.2,39.0,30.10,SSW,202,2.2,2.2,92,0.00,,,0.06,LWC V2.11 B50,2013-02-07 15:30:00,
2013-02-07 07:35:00,41.0,38.6,30.10,South,180,0.9,0.9,91,0.00,,,0.06,LWC V2.11 B50,2013-02-07 15:35:00,
2013-02-07 07:40:00,40.8,38.4,30.10,SW,225,6.3,6.3,91,0.00,,,0.06,LWC V2.11 B50,2013-02-07 15:40:00,
2013-02-07 07:45:00,40.8,38.4,30.10,SW,225,1.1,1.1,91,0.00,,,0.06,LWC V2.11 B50,2013-02-07 15:45:00,
2013-02-07 07:50:00,40.8,38.4,30.11,SSE,157,0.0,1.3,91,0.00,,,0.06,LWC V2.11 B50,2013-02-07 15:50:00,
2013-02-07 07:55:00,50.4,46.5,30.24,SE,140,1.7,0.0,86,0.00,,,0.00,WeatherCatV1.15B25,2013-02-07 15:55:00,
2013-02-07 07:56:00,40.6,38.2,30.11,SW,225,4.5,4.5,91,0.00,,,0.06,LWC V2.11 B50,2013-02-07 15:56:00,
2013-02-07 08:00:00,50.4,46.5,30.24,SE,140,1.7,0.0,86,0.00,,,0.00,WeatherCatV1.15B25,2013-02-07 16:00:00,
2013-02-07 08:01:00,40.6,38.2,30.12,WSW,247,1.6,1.6,91,0.00,,,0.06,LWC V2.11 B50,2013-02-07 16:01:00,
2013-02-07 08:05:00,50.4,46.5,30.24,SE,140,1.7,0.0,86,0.00,,,0.00,WeatherCatV1.15B25,2013-02-07 16:05:00,
2013-02-07 08:06:00,40.6,38.5,30.13,SE,135,0.0,0.0,91,0.00,,,0.06,LWC V2.11 B50,2013-02-07 16:06:00,
2013-02-07 08:10:00,50.4,46.5,30.24,SE,140,1.7,0.0,86,0.00,,,0.00,WeatherCatV1.15B25,2013-02-07 16:10:00,
2013-02-07 08:11:00,40.6,38.5,30.14,West,270,3.1,3.1,92,0.00,,,0.06,LWC V2.11 B50,2013-02-07 16:11:00,
2013-02-07 08:15:00,50.4,46.5,30.24,SE,140,1.7,0.0,86,0.00,,,0.00,WeatherCatV1.15B25,2013-02-07 16:15:00,
2013-02-07 08:16:00,40.6,38.5,30.13,WSW,247,1.8,1.8,92,0.00,,,0.06,LWC V2.11 B50,2013-02-07 16:16:00,
2013-02-07 08:20:00,50.4,46.5,30.24,SE,140,1.7,0.0,86,0.00,,,0.00,WeatherCatV1.15B25,2013-02-07 16:20:00,
2013-02-07 08:21:00,40.8,38.7,30.14,SW,225,2.5,2.9,92,0.00,,,0.06,LWC V2.11 B50,2013-02-07 16:21:00,
2013-02-07 08:25:00,50.4,46.5,30.24,SE,140,1.7,0.0,86,0.00,,,0.00,WeatherCatV1.15B25,2013-02-07 16:25:00,
2013-02-07 08:26:00,40.8,38.7,30.13,SW,225,5.8,5.8,92,0.00,,,0.06,LWC V2.11 B50,2013-02-07 16:26:00,
2013-02-07 08:30:00,50.4,46.5,30.24,SE,140,1.7,0.0,86,0.00,,,0.00,WeatherCatV1.15B25,2013-02-07 16:30:00,
2013-02-07 08:31:00,40.8,38.7,30.13,WSW,247,4.5,4.5,92,0.00,,,0.06,LWC V2.11 B50,2013-02-07 16:31:00,
2013-02-07 08:35:00,50.4,46.5,30.24,SE,140,1.7,0.0,86,0.00,,,0.00,WeatherCatV1.15B25,2013-02-07 16:35:00,
2013-02-07 08:36:00,41.2,39.0,30.14,SW,225,7.2,7.2,92,0.00,,,0.06,LWC V2.11 B50,2013-02-07 16:36:00,
2013-02-07 08:40:00,50.4,46.5,30.24,SE,140,1.7,0.0,86,0.00,,,0.00,WeatherCatV1.15B25,2013-02-07 16:40:00,
2013-02-07 08:41:00,41.2,39.0,30.14,WSW,247,3.8,3.8,92,0.00,,,0.06,LWC V2.11 B50,2013-02-07 16:41:00,
2013-02-07 08:45:00,50.4,46.5,30.24,SE,140,1.7,0.0,86,0.00,,,0.00,WeatherCatV1.15B25,2013-02-07 16:45:00,
2013-02-07 08:46:00,41.2,39.0,30.14,WSW,247,5.4,5.4,92,0.00,,,0.06,LWC V2.11 B50,2013-02-07 16:46:00,
2013-02-07 08:50:00,50.4,46.5,30.24,SE,140,1.7,0.0,86,0.00,,,0.00,WeatherCatV1.15B25,2013-02-07 16:50:00,
2013-02-07 08:51:00,41.4,39.2,30.14,SSW,202,2.9,5.4,92,0.00,,,0.06,LWC V2.11 B50,2013-02-07 16:51:00,
2013-02-07 08:55:00,50.4,46.5,30.24,SE,140,1.7,0.0,86,0.00,,,0.00,WeatherCatV1.15B25,2013-02-07 16:55:00,
2013-02-07 08:56:00,41.5,39.4,30.14,SW,225,4.2,4.2,92,0.00,,,0.06,LWC V2.11 B50,2013-02-07 16:56:00,
2013-02-07 09:00:00,50.4,46.5,30.24,SE,140,1.7,0.0,86,0.00,,,0.00,WeatherCatV1.15B25,2013-02-07 17:00:00,
2013-02-07 09:01:00,41.5,39.7,30.15,WSW,247,2.9,3.1,93,0.00,,,0.06,LWC V2.11 B50,2013-02-07 17:01:00,
2013-02-07 09:05:00,50.4,46.5,30.24,SE,140,1.7,0.0,86,0.00,,,0.00,WeatherCatV1.15B25,2013-02-07 17:05:00,
2013-02-07 09:06:00,41.5,39.7,30.16,SW,225,0.0,3.8,93,0.00,,,0.06,LWC V2.11 B50,2013-02-07 17:06:00,
2013-02-07 09:10:00,50.4,46.5,30.24,SE,140,1.7,0.0,86,0.00,,,0.00,WeatherCatV1.15B25,2013-02-07 17:10:00,
2013-02-07 09:12:00,41.7,39.6,30.16,SW,225,1.6,1.6,92,0.00,,,0.06,LWC V2.11 B50,2013-02-07 17:12:00,
2013-02-07 09:15:00,50.4,46.5,30.24,SE,140,1.7,0.0,86,0.00,,,0.00,WeatherCatV1.15B25,2013-02-07 17:15:00,
2013-02-07 09:17:00,41.9,39.7,30.16,WSW,247,3.1,5.1,92,0.00,,,0.06,LWC V2.11 B50,2013-02-07 17:17:00,
2013-02-07 09:20:00,50.4,46.5,30.24,SE,140,1.7,0.0,86,0.00,,,0.00,WeatherCatV1.15B25,2013-02-07 17:20:00,
2013-02-07 09:22:00,41.9,39.7,30.15,West,270,2.9,2.9,92,0.00,,,0.06,LWC V2.11 B50,2013-02-07 17:22:00,
2013-02-07 09:25:00,50.4,46.5,30.24,SE,140,1.7,0.0,86,0.00,,,0.00,WeatherCatV1.15B25,2013-02-07 17:25:00,
2013-02-07 09:27:00,42.1,39.9,30.15,SSW,202,3.6,5.8,92,0.00,,,0.06,LWC V2.11 B50,2013-02-07 17:27:00,
2013-02-07 09:30:00,50.4,46.5,30.24,SE,140,1.7,0.0,86,0.00,,,0.00,WeatherCatV1.15B25,2013-02-07 17:30:00,
2013-02-07 09:32:00,42.1,39.9,30.16,SW,225,3.1,3.4,92,0.00,,,0.06,LWC V2.11 B50,2013-02-07 17:32:00,
2013-02-07 09:35:00,50.4,46.5,30.24,SE,140,1.7,0.0,86,0.00,,,0.00,WeatherCatV1.15B25,2013-02-07 17:35:00,
2013-02-07 09:37:00,42.1,39.9,30.16,SW,225,5.1,5.1,92,0.00,,,0.06,LWC V2.11 B50,2013-02-07 17:37:00,
2013-02-07 09:40:00,50.4,46.4,30.24,SE,140,1.7,0.0,86,0.00,,,0.00,WeatherCatV1.15B25,2013-02-07 17:40:00,
2013-02-07 09:42:00,42.3,39.9,30.16,WSW,247,3.4,4.5,92,0.00,,,0.06,LWC V2.11 B50,2013-02-07 17:42:00,
2013-02-07 09:45:00,50.4,46.4,30.24,SE,140,1.7,0.0,86,0.00,,,0.00,WeatherCatV1.15B25,2013-02-07 17:45:00,
2013-02-07 09:47:00,42.4,40.3,30.16,WSW,247,2.5,2.9,92,0.00,,,0.06,LWC V2.11 B50,2013-02-07 17:47:00,
2013-02-07 09:50:00,50.4,46.4,30.24,SE,140,1.7,0.0,86,0.00,,,0.00,WeatherCatV1.15B25,2013-02-07 17:50:00,
2013-02-07 09:52:00,42.4,40.3,30.16,WSW,247,4.0,4.0,92,0.00,,,0.06,LWC V2.11 B50,2013-02-07 17:52:00,
2013-02-07 09:55:00,50.4,46.4,30.24,SE,140,1.7,0.0,86,0.00,,,0.00,WeatherCatV1.15B25,2013-02-07 17:55:00,
2013-02-07 09:57:00,42.1,39.9,30.16,WSW,247,4.7,4.7,92,0.00,,,0.06,LWC V2.11 B50,2013-02-07 17:57:00,
2013-02-07 10:00:00,50.4,46.4,30.24,SE,140,1.7,0.0,86,0.00,,,0.00,WeatherCatV1.15B25,2013-02-07 18:00:00,
2013-02-07 10:02:00,42.1,39.7,30.17,WSW,247,2.0,3.4,91,0.00,,,0.06,LWC V2.11 B50,2013-02-07 18:02:00,
2013-02-07 10:05:00,50.4,46.4,30.24,SE,140,1.7,0.0,86,0.00,,,0.00,WeatherCatV1.15B25,2013-02-07 18:05:00,
2013-02-07 10:07:00,42.1,39.9,30.17,SW,225,2.9,2.9,92,0.00,,,0.06,LWC V2.11 B50,2013-02-07 18:07:00,
2013-02-07 10:10:00,50.4,46.4,30.24,SE,140,1.7,0.0,86,0.00,,,0.00,WeatherCatV1.15B25,2013-02-07 18:10:00,
2013-02-07 10:12:00,42.4,40.3,30.17,WSW,247,2.2,3.8,92,0.00,,,0.06,LWC V2.11 B50,2013-02-07 18:12:00,
2013-02-07 10:15:00,50.4,46.4,30.24,SE,140,1.7,0.0,86,0.00,,,0.00,WeatherCatV1.15B25,2013-02-07 18:15:00,
2013-02-07 10:17:00,42.4,40.3,30.17,WSW,247,4.0,4.0,92,0.00,,,0.06,LWC V2.11 B50,2013-02-07 18:17:00,
2013-02-07 10:20:00,50.4,46.4,30.24,SE,140,1.7,0.0,86,0.00,,,0.00,WeatherCatV1.15B25,2013-02-07 18:20:00,
2013-02-07 10:22:00,42.6,40.5,30.18,West,270,4.2,5.4,92,0.00,,,0.06,LWC V2.11 B50,2013-02-07 18:22:00,
2013-02-07 10:25:00,50.4,46.4,30.24,SE,140,1.7,0.0,86,0.00,,,0.00,WeatherCatV1.15B25,2013-02-07 18:25:00,
2013-02-07 10:28:00,42.8,40.6,30.18,SW,225,3.1,4.7,92,0.00,,,0.06,LWC V2.11 B50,2013-02-07 18:28:00,
2013-02-07 10:30:00,50.4,46.4,30.24,SE,140,1.7,0.0,86,0.00,,,0.00,WeatherCatV1.15B25,2013-02-07 18:30:00,
2013-02-07 10:33:00,43.0,40.5,30.17,SW,225,2.0,2.0,91,0.00,,,0.06,LWC V2.11 B50,2013-02-07 18:33:00,
2013-02-07 10:35:00,50.4,46.4,30.24,SE,140,1.7,0.0,86,0.00,,,0.00,WeatherCatV1.15B25,2013-02-07 18:35:00,
2013-02-07 10:38:00,43.0,40.5,30.18,SSW,202,6.5,6.5,91,0.00,,,0.06,LWC V2.11 B50,2013-02-07 18:38:00,
2013-02-07 10:40:00,50.4,46.4,30.24,SE,140,1.7,0.0,86,0.00,,,0.00,WeatherCatV1.15B25,2013-02-07 18:40:00,
2013-02-07 10:43:00,43.2,40.7,30.18,SW,225,4.0,4.0,91,0.00,,,0.06,LWC V2.11 B50,2013-02-07 18:43:00,
2013-02-07 10:45:00,50.4,46.4,30.24,SE,140,1.7,0.0,86,0.00,,,0.00,WeatherCatV1.15B25,2013-02-07 18:45:00,
2013-02-07 10:48:00,43.3,40.9,30.18,WSW,247,3.4,3.4,91,0.00,,,0.06,LWC V2.11 B50,2013-02-07 18:48:00,
2013-02-07 10:50:00,50.4,46.4,30.24,SE,140,1.7,0.0,86,0.00,,,0.00,WeatherCatV1.15B25,2013-02-07 18:50:00,
2013-02-07 10:53:00,43.5,41.4,30.18,SW,225,4.2,4.2,92,0.00,,,0.06,LWC V2.11 B50,2013-02-07 18:53:00,
2013-02-07 10:55:00,50.4,46.4,30.24,SE,140,1.7,0.0,86,0.00,,,0.00,WeatherCatV1.15B25,2013-02-07 18:55:00,
2013-02-07 10:58:00,43.5,41.1,30.18,WSW,247,2.9,2.9,91,0.00,,,0.06,LWC V2.11 B50,2013-02-07 18:58:00,
2013-02-07 11:00:00,50.4,46.4,30.24,SE,140,1.7,0.0,86,0.00,,,0.00,WeatherCatV1.15B25,2013-02-07 19:00:00,
2013-02-07 11:03:00,43.7,41.5,30.18,SSW,202,2.0,2.0,91,0.00,,,0.06,LWC V2.11 B50,2013-02-07 19:03:00,
2013-02-07 11:05:00,50.4,46.4,30.24,SE,140,1.7,0.0,86,0.00,,,0.00,WeatherCatV1.15B25,2013-02-07 19:05:00,
2013-02-07 11:08:00,43.9,41.5,30.18,South,180,3.1,3.1,91,0.00,,,0.06,LWC V2.11 B50,2013-02-07 19:08:00,
2013-02-07 11:10:00,50.4,46.4,30.24,SE,140,1.7,0.0,86,0.00,,,0.00,WeatherCatV1.15B25,2013-02-07 19:10:00,
2013-02-07 11:13:00,44.1,41.6,30.18,SW,225,3.6,3.6,91,0.00,,,0.06,LWC V2.11 B50,2013-02-07 19:13:00,
2013-02-07 11:15:00,50.4,46.4,30.24,SE,140,1.7,0.0,86,0.00,,,0.00,WeatherCatV1.15B25,2013-02-07 19:15:00,
2013-02-07 11:18:00,44.4,42.0,30.18,WSW,247,1.6,2.9,91,0.00,,,0.06,LWC V2.11 B50,2013-02-07 19:18:00,
2013-02-07 11:20:00,50.4,46.4,30.24,SE,140,1.7,0.0,86,0.00,,,0.00,WeatherCatV1.15B25,2013-02-07 19:20:00,
2013-02-07 11:23:00,44.4,42.0,30.18,SW,225,2.2,5.6,91,0.00,,,0.06,LWC V2.11 B50,2013-02-07 19:23:00,
2013-02-07 11:25:00,50.4,46.4,30.24,SE,140,1.7,0.0,86,0.00,,,0.00,WeatherCatV1.15B25,2013-02-07 19:25:00,
2013-02-07 11:28:00,44.6,41.9,30.18,WSW,247,3.4,3.4,90,0.00,,,0.06,LWC V2.11 B50,2013-02-07 19:28:00,
2013-02-07 11:30:00,50.4,46.4,30.24,SE,140,1.7,0.0,86,0.00,,,0.00,WeatherCatV1.15B25,2013-02-07 19:30:00,
2013-02-07 11:34:00,44.8,42.1,30.19,SW,225,3.1,3.1,90,0.00,,,0.06,LWC V2.11 B50,2013-02-07 19:34:00,
2013-02-07 11:35:00,50.4,46.4,30.24,SE,140,1.7,0.0,86,0.00,,,0.00,WeatherCatV1.15B25,2013-02-07 19:35:00,
2013-02-07 11:39:00,44.8,42.1,30.19,WSW,247,2.0,2.0,90,0.00,,,0.06,LWC V2.11 B50,2013-02-07 19:39:00,
2013-02-07 11:40:00,50.4,46.4,30.24,SE,140,1.7,0.0,86,0.00,,,0.00,WeatherCatV1.15B25,2013-02-07 19:40:00,
2013-02-07 11:44:00,45.1,42.4,30.18,WSW,247,2.7,2.7,90,0.00,,,0.06,LWC V2.11 B50,2013-02-07 19:44:00,
2013-02-07 11:45:00,50.4,46.4,30.24,SE,140,1.7,0.0,86,0.00,,,0.00,WeatherCatV1.15B25,2013-02-07 19:45:00,
2013-02-07 11:49:00,45.3,42.6,30.18,WSW,247,2.0,4.0,90,0.00,,,0.06,LWC V2.11 B50,2013-02-07 19:49:00,
2013-02-07 11:50:00,50.4,46.4,30.24,SE,140,1.7,0.0,86,0.00,,,0.00,WeatherCatV1.15B25,2013-02-07 19:50:00,
2013-02-07 11:54:00,45.5,42.8,30.18,WSW,247,2.0,2.0,90,0.00,,,0.06,LWC V2.11 B50,2013-02-07 19:54:00,
2013-02-07 11:55:00,50.4,46.4,30.24,SE,140,1.7,0.0,86,0.00,,,0.00,WeatherCatV1.15B25,2013-02-07 19:55:00,
2013-02-07 11:59:00,46.0,43.2,30.18,WSW,247,4.0,5.1,90,0.00,,,0.06,LWC V2.11 B50,2013-02-07 19:59:00,
2013-02-07 12:00:00,50.4,46.4,30.24,SE,140,1.7,0.0,86,0.00,,,0.00,WeatherCatV1.15B25,2013-02-07 20:00:00,
2013-02-07 12:04:00,46.2,43.2,30.18,WSW,247,2.9,3.8,89,0.00,,,0.06,LWC V2.11 B50,2013-02-07 20:04:00,
2013-02-07 12:05:00,50.4,46.4,30.24,SE,140,1.7,0.0,86,0.00,,,0.00,WeatherCatV1.15B25,2013-02-07 20:05:00,
2013-02-07 12:09:00,46.6,43.6,30.18,WSW,247,0.0,0.0,89,0.00,,,0.06,LWC V2.11 B50,2013-02-07 20:09:00,
2013-02-07 12:10:00,50.4,46.4,30.24,SE,140,1.7,0.0,86,0.00,,,0.00,WeatherCatV1.15B25,2013-02-07 20:10:00,
2013-02-07 12:14:00,47.5,44.4,30.18,WSW,247,2.5,2.5,90,0.00,,,0.06,LWC V2.11 B50,2013-02-07 20:14:00,
2013-02-07 12:15:00,50.4,46.4,30.24,SE,140,1.7,0.0,86,0.00,,,0.00,WeatherCatV1.15B25,2013-02-07 20:15:00,
2013-02-07 12:19:00,48.4,45.7,30.18,WSW,247,4.0,4.0,90,0.00,,,0.06,LWC V2.11 B50,2013-02-07 20:19:00,
2013-02-07 12:20:00,50.4,46.4,30.24,SE,140,1.7,0.0,86,0.00,,,0.00,WeatherCatV1.15B25,2013-02-07 20:20:00,
2013-02-07 12:24:00,49.1,46.3,30.18,WSW,247,1.3,1.3,90,0.00,,,0.06,LWC V2.11 B50,2013-02-07 20:24:00,
2013-02-07 12:25:00,50.4,46.4,30.24,SE,140,1.7,0.0,86,0.00,,,0.00,WeatherCatV1.15B25,2013-02-07 20:25:00,
2013-02-07 12:29:00,50.4,46.9,30.18,WSW,247,3.8,3.8,88,0.00,,,0.06,LWC V2.11 B50,2013-02-07 20:29:00,
2013-02-07 12:30:00,50.4,46.4,30.24,SE,140,1.7,0.0,86,0.00,,,0.00,WeatherCatV1.15B25,2013-02-07 20:30:00,
2013-02-07 12:34:00,51.1,47.3,30.18,WSW,247,3.8,3.8,87,0.00,,,0.06,LWC V2.11 B50,2013-02-07 20:34:00,
2013-02-07 12:35:00,50.4,46.4,30.24,SE,140,1.7,0.0,86,0.00,,,0.00,WeatherCatV1.15B25,2013-02-07 20:35:00,
2013-02-07 12:39:00,51.6,47.5,30.18,WSW,247,2.0,2.0,86,0.00,,,0.06,LWC V2.11 B50,2013-02-07 20:39:00,
2013-02-07 12:40:00,50.4,46.4,30.24,SE,140,1.7,0.0,86,0.00,,,0.00,WeatherCatV1.15B25,2013-02-07 20:40:00,
2013-02-07 12:45:00,52.5,48.1,30.18,SW,225,3.1,3.1,85,0.00,,,0.06,LWC V2.11 B50,2013-02-07 20:45:00,
2013-02-07 12:50:00,53.4,48.7,30.18,WSW,247,2.0,2.0,84,0.00,,,0.06,LWC V2.11 B50,2013-02-07 20:50:00,
2013-02-07 12:55:00,54.3,49.2,30.18,WSW,247,2.9,2.9,84,0.00,,,0.06,LWC V2.11 B50,2013-02-07 20:55:00,
2013-02-07 13:00:00,54.9,49.1,30.18,SW,225,0.0,2.7,81,0.00,,,0.06,LWC V2.11 B50,2013-02-07 21:00:00,
2013-02-07 13:05:00,55.0,49.0,30.18,SW,225,0.0,0.0,80,0.00,,,0.06,LWC V2.11 B50,2013-02-07 21:05:00,
2013-02-07 13:10:00,55.2,48.8,30.19,West,270,0.0,0.0,79,0.00,,,0.06,LWC V2.11 B50,2013-02-07 21:10:00,
2013-02-07 13:15:00,55.6,49.1,30.18,West,270,0.0,0.0,79,0.00,,,0.06,LWC V2.11 B50,2013-02-07 21:15:00,
2013-02-07 13:20:00,55.9,49.5,30.18,West,270,0.0,0.0,79,0.00,,,0.06,LWC V2.11 B50,2013-02-07 21:20:00,
2013-02-07 13:25:00,56.1,49.8,30.18,West,270,0.0,0.0,79,0.00,,,0.06,LWC V2.11 B50,2013-02-07 21:25:00,
2013-02-07 13:30:00,56.5,49.6,30.18,West,270,0.0,0.0,78,0.00,,,0.06,LWC V2.11 B50,2013-02-07 21:30:00,
2013-02-07 13:35:00,56.5,49.3,30.18,West,270,0.0,0.0,77,0.00,,,0.06,LWC V2.11 B50,2013-02-07 21:35:00,
2013-02-07 13:40:00,56.3,48.8,30.18,NW,315,0.0,0.0,76,0.00,,,0.06,LWC V2.11 B50,2013-02-07 21:40:00,
2013-02-07 13:45:00,56.3,48.8,30.18,WNW,292,0.0,0.0,76,0.00,,,0.06,LWC V2.11 B50,2013-02-07 21:45:00,
2013-02-07 13:50:00,55.9,48.6,30.18,NNW,337,0.0,0.0,76,0.00,,,0.06,LWC V2.11 B50,2013-02-07 21:50:00,
2013-02-07 13:55:00,55.6,47.7,30.18,SE,135,0.0,0.0,75,0.00,,,0.06,LWC V2.11 B50,2013-02-07 21:55:00,
2013-02-07 14:00:00,50.4,46.4,30.24,SE,140,1.7,0.0,86,0.00,,,0.00,WeatherCatV1.15B25,2013-02-07 22:00:00,
2013-02-07 14:01:00,55.2,47.4,30.18,SW,225,0.0,0.0,75,0.00,,,0.06,LWC V2.11 B50,2013-02-07 22:01:00,
2013-02-07 14:05:00,50.4,46.4,30.24,SE,140,1.7,0.0,86,0.00,,,0.00,WeatherCatV1.15B25,2013-02-07 22:05:00,
2013-02-07 14:06:00,54.9,47.0,30.19,WSW,247,0.0,0.0,75,0.00,,,0.06,LWC V2.11 B50,2013-02-07 22:06:00,
2013-02-07 14:10:00,50.4,46.4,30.24,SE,140,1.7,0.0,86,0.00,,,0.00,WeatherCatV1.15B25,2013-02-07 22:10:00,
2013-02-07 14:11:00,54.5,46.4,30.18,WSW,247,1.1,1.1,74,0.00,,,0.06,LWC V2.11 B50,2013-02-07 22:11:00,
2013-02-07 14:15:00,50.4,46.4,30.24,SE,140,1.7,0.0,86,0.00,,,0.00,WeatherCatV1.15B25,2013-02-07 22:15:00,
2013-02-07 14:16:00,54.3,46.2,30.18,WSW,247,0.0,0.0,74,0.00,,,0.06,LWC V2.11 B50,2013-02-07 22:16:00,
2013-02-07 14:20:00,50.4,46.4,30.24,SE,140,1.7,0.0,86,0.00,,,0.00,WeatherCatV1.15B25,2013-02-07 22:20:00,
2013-02-07 14:21:00,53.8,45.7,30.19,WSW,247,0.0,0.0,74,0.00,,,0.06,LWC V2.11 B50,2013-02-07 22:21:00,
2013-02-07 14:25:00,50.4,46.4,30.24,SE,140,1.7,0.0,86,0.00,,,0.00,WeatherCatV1.15B25,2013-02-07 22:25:00,
2013-02-07 14:26:00,53.1,45.3,30.19,SW,225,0.0,0.0,75,0.00,,,0.06,LWC V2.11 B50,2013-02-07 22:26:00,
2013-02-07 14:30:00,50.4,46.4,30.24,SE,140,1.7,0.0,86,0.00,,,0.00,WeatherCatV1.15B25,2013-02-07 22:30:00,
2013-02-07 14:31:00,52.7,45.0,30.18,WSW,247,0.0,0.0,75,0.00,,,0.06,LWC V2.11 B50,2013-02-07 22:31:00,
2013-02-07 14:35:00,50.4,46.4,30.24,SE,140,1.7,0.0,86,0.00,,,0.00,WeatherCatV1.15B25,2013-02-07 22:35:00,
2013-02-07 14:36:00,52.7,45.4,30.18,NW,315,0.0,0.0,76,0.00,,,0.06,LWC V2.11 B50,2013-02-07 22:36:00,
2013-02-07 14:40:00,50.4,46.4,30.24,SE,140,1.7,0.0,86,0.00,,,0.00,WeatherCatV1.15B25,2013-02-07 22:40:00,
2013-02-07 14:41:00,52.9,45.9,30.19,West,270,0.0,0.0,77,0.00,,,0.06,LWC V2.11 B50,2013-02-07 22:41:00,
2013-02-07 14:45:00,50.4,46.4,30.24,SE,140,1.7,0.0,86,0.00,,,0.00,WeatherCatV1.15B25,2013-02-07 22:45:00,
2013-02-07 14:46:00,53.4,46.2,30.18,NW,315,0.0,0.0,76,0.00,,,0.06,LWC V2.11 B50,2013-02-07 22:46:00,
2013-02-07 14:50:00,50.4,46.4,30.24,SE,140,1.7,0.0,86,0.00,,,0.00,WeatherCatV1.15B25,2013-02-07 22:50:00,
2013-02-07 14:51:00,54.1,46.7,30.18,NW,315,0.0,0.0,76,0.00,,,0.06,LWC V2.11 B50,2013-02-07 22:51:00,
2013-02-07 14:55:00,50.4,46.4,30.24,SE,140,1.7,0.0,86,0.00,,,0.00,WeatherCatV1.15B25,2013-02-07 22:55:00,
2013-02-07 14:56:00,54.3,46.5,30.18,West,270,0.0,0.0,75,0.00,,,0.06,LWC V2.11 B50,2013-02-07 22:56:00,
2013-02-07 15:00:00,50.4,46.4,30.24,SE,140,1.7,0.0,86,0.00,,,0.00,WeatherCatV1.15B25,2013-02-07 23:00:00,
2013-02-07 15:01:00,54.5,47.1,30.18,WNW,292,0.0,0.9,76,0.00,,,0.06,LWC V2.11 B50,2013-02-07 23:01:00,
2013-02-07 15:05:00,50.4,46.4,30.24,SE,140,1.7,0.0,86,0.00,,,0.00,WeatherCatV1.15B25,2013-02-07 23:05:00,
2013-02-07 15:06:00,54.7,47.2,30.18,WNW,292,0.0,0.0,76,0.00,,,0.06,LWC V2.11 B50,2013-02-07 23:06:00,
2013-02-07 15:10:00,50.4,46.4,30.24,SE,140,1.7,0.0,86,0.00,,,0.00,WeatherCatV1.15B25,2013-02-07 23:10:00,
2013-02-07 15:11:00,55.0,47.6,30.18,NW,315,1.6,1.6,76,0.00,,,0.06,LWC V2.11 B50,2013-02-07 23:11:00,
2013-02-07 15:15:00,50.4,46.4,30.24,SE,140,1.7,0.0,86,0.00,,,0.00,WeatherCatV1.15B25,2013-02-07 23:15:00,
2013-02-07 15:17:00,54.9,47.4,30.18,West,270,2.0,3.1,76,0.00,,,0.06,LWC V2.11 B50,2013-02-07 23:17:00,
2013-02-07 15:20:00,50.4,46.4,30.24,SE,140,1.7,0.0,86,0.00,,,0.00,WeatherCatV1.15B25,2013-02-07 23:20:00,
2013-02-07 15:22:00,54.7,47.2,30.17,West,270,0.0,2.9,76,0.00,,,0.06,LWC V2.11 B50,2013-02-07 23:22:00,
2013-02-07 15:25:00,50.4,46.4,30.24,SE,140,1.7,0.0,86,0.00,,,0.00,WeatherCatV1.15B25,2013-02-07 23:25:00,
2013-02-07 15:27:00,54.5,46.7,30.16,WNW,292,0.0,0.0,75,0.00,,,0.06,LWC V2.11 B50,2013-02-07 23:27:00,
2013-02-07 15:30:00,50.4,46.4,30.24,SE,140,1.7,0.0,86,0.00,,,0.00,WeatherCatV1.15B25,2013-02-07 23:30:00,
2013-02-07 15:32:00,54.1,46.4,30.16,WNW,292,0.0,0.0,75,0.00,,,0.06,LWC V2.11 B50,2013-02-07 23:32:00,
2013-02-07 15:35:00,50.4,46.4,30.24,SE,140,1.7,0.0,86,0.00,,,0.00,WeatherCatV1.15B25,2013-02-07 23:35:00,
2013-02-07 15:37:00,54.0,46.2,30.16,NNE,22,0.0,0.0,75,0.00,,,0.06,LWC V2.11 B50,2013-02-07 23:37:00,
2013-02-07 15:40:00,50.4,46.4,30.24,SE,140,1.7,0.0,86,0.00,,,0.00,WeatherCatV1.15B25,2013-02-07 23:40:00,
2013-02-07 15:42:00,53.4,45.7,30.16,NNE,22,0.0,0.0,75,0.00,,,0.06,LWC V2.11 B50,2013-02-07 23:42:00,
2013-02-07 15:45:00,50.4,46.4,30.24,SE,140,1.7,0.0,86,0.00,,,0.00,WeatherCatV1.15B25,2013-02-07 23:45:00,
2013-02-07 15:47:00,53.2,45.5,30.17,NNE,22,0.0,0.0,75,0.00,,,0.06,LWC V2.11 B50,2013-02-07 23:47:00,
2013-02-07 15:50:00,50.4,46.4,30.24,SE,140,1.7,0.0,86,0.00,,,0.00,WeatherCatV1.15B25,2013-02-07 23:50:00,
2013-02-07 15:52:00,52.9,45.2,30.16,North,0,0.0,0.0,75,0.00,,,0.06,LWC V2.11 B50,2013-02-07 23:52:00,
2013-02-07 15:55:00,50.4,46.4,30.24,SE,140,1.7,0.0,86,0.00,,,0.00,WeatherCatV1.15B25,2013-02-07 23:55:00,
2013-02-07 15:57:00,52.5,44.8,30.16,North,0,0.0,0.0,75,0.00,,,0.06,LWC V2.11 B50,2013-02-07 23:57:00,
2013-02-07 16:00:00,50.4,46.4,30.24,SE,140,1.7,0.0,86,0.00,,,0.00,WeatherCatV1.15B25,2013-02-08 00:00:00,
2013-02-07 16:02:00,52.3,44.7,30.17,NE,45,0.0,0.0,75,0.00,,,0.06,LWC V2.11 B50,2013-02-08 00:02:00,
2013-02-07 16:05:00,50.4,46.4,30.24,SE,140,1.7,0.0,86,0.00,,,0.00,WeatherCatV1.15B25,2013-02-08 00:05:00,
2013-02-07 16:07:00,52.0,44.3,30.17,NE,45,0.0,0.0,75,0.00,,,0.06,LWC V2.11 B50,2013-02-08 00:07:00,
2013-02-07 16:10:00,50.4,46.4,30.24,SE,140,1.7,0.0,86,0.00,,,0.00,WeatherCatV1.15B25,2013-02-08 00:10:00,
2013-02-07 16:12:00,51.6,44.3,30.17,North,0,0.0,0.0,76,0.00,,,0.06,LWC V2.11 B50,2013-02-08 00:12:00,
2013-02-07 16:15:00,50.4,46.4,30.24,SE,140,1.7,0.0,86,0.00,,,0.00,WeatherCatV1.15B25,2013-02-08 00:15:00,
2013-02-07 16:17:00,51.4,44.1,30.17,NW,315,0.0,0.0,76,0.00,,,0.06,LWC V2.11 B50,2013-02-08 00:17:00,
2013-02-07 16:20:00,50.4,46.4,30.24,SE,139,1.7,0.0,86,0.00,,,0.00,WeatherCatV1.15B25,2013-02-08 00:20:00,
2013-02-07 16:22:00,51.1,44.0,30.18,NNE,22,0.0,0.0,76,0.00,,,0.06,LWC V2.11 B50,2013-02-08 00:22:00,
2013-02-07 16:25:00,50.4,46.4,30.24,SE,139,1.7,0.0,86,0.00,,,0.00,WeatherCatV1.15B25,2013-02-08 00:25:00,
2013-02-07 16:27:00,50.9,43.9,30.17,North,0,0.0,0.0,77,0.00,,,0.06,LWC V2.11 B50,2013-02-08 00:27:00,
2013-02-07 16:30:00,50.4,46.4,30.24,SE,139,1.6,0.0,86,0.00,,,0.00,WeatherCatV1.15B25,2013-02-08 00:30:00,
2013-02-07 16:33:00,50.7,43.8,30.17,ENE,67,0.0,0.0,77,0.00,,,0.06,LWC V2.11 B50,2013-02-08 00:33:00,
2013-02-07 16:35:00,50.4,46.4,30.24,SE,139,1.6,0.0,86,0.00,,,0.00,WeatherCatV1.15B25,2013-02-08 00:35:00,
2013-02-07 16:38:00,50.7,43.8,30.18,NNE,22,0.0,0.0,77,0.00,,,0.06,LWC V2.11 B50,2013-02-08 00:38:00,
2013-02-07 16:40:00,50.4,46.4,30.24,SE,139,1.6,0.0,86,0.00,,,0.00,WeatherCatV1.15B25,2013-02-08 00:40:00,
2013-02-07 16:43:00,50.5,43.6,30.18,North,0,0.0,0.0,77,0.00,,,0.06,LWC V2.11 B50,2013-02-08 00:43:00,
2013-02-07 16:45:00,50.4,46.4,30.24,SE,139,1.6,0.0,86,0.00,,,0.00,WeatherCatV1.15B25,2013-02-08 00:45:00,
2013-02-07 16:48:00,50.2,43.2,30.19,NNE,22,0.0,0.0,77,0.00,,,0.06,LWC V2.11 B50,2013-02-08 00:48:00,
2013-02-07 16:50:00,50.4,46.4,30.24,SE,139,1.6,0.0,86,0.00,,,0.00,WeatherCatV1.15B25,2013-02-08 00:50:00,
2013-02-07 16:53:00,49.8,42.9,30.20,ENE,67,0.0,0.0,77,0.00,,,0.06,LWC V2.11 B50,2013-02-08 00:53:00,
2013-02-07 16:55:00,50.4,46.4,30.24,SE,139,1.6,0.0,86,0.00,,,0.00,WeatherCatV1.15B25,2013-02-08 00:55:00,
2013-02-07 16:58:00,49.6,42.7,30.20,NE,45,0.0,0.0,77,0.00,,,0.06,LWC V2.11 B50,2013-02-08 00:58:00,
2013-02-07 17:00:00,50.4,46.4,30.24,SE,139,1.6,0.0,86,0.00,,,0.00,WeatherCatV1.15B25,2013-02-08 01:00:00,
2013-02-07 17:03:00,49.5,42.5,30.21,NE,45,0.0,0.0,77,0.00,,,0.06,LWC V2.11 B50,2013-02-08 01:03:00,
2013-02-07 17:05:00,50.4,46.4,30.24,SE,139,1.6,0.0,86,0.00,,,0.00,WeatherCatV1.15B25,2013-02-08 01:05:00,
2013-02-07 17:08:00,48.9,42.0,30.21,ENE,67,0.0,0.0,77,0.00,,,0.06,LWC V2.11 B50,2013-02-08 01:08:00,
2013-02-07 17:10:00,50.4,46.4,30.24,SE,139,1.6,0.0,86,0.00,,,0.00,WeatherCatV1.15B25,2013-02-08 01:10:00,
2013-02-07 17:13:00,48.6,41.6,30.21,NE,45,0.0,0.0,77,0.00,,,0.06,LWC V2.11 B50,2013-02-08 01:13:00,
2013-02-07 17:15:00,50.4,46.4,30.24,SE,139,1.6,0.0,86,0.00,,,0.00,WeatherCatV1.15B25,2013-02-08 01:15:00,
2013-02-07 17:18:00,48.0,41.1,30.21,ENE,67,0.0,0.0,77,0.00,,,0.06,LWC V2.11 B50,2013-02-08 01:18:00,
2013-02-07 17:20:00,50.4,46.4,30.24,SE,139,1.6,0.0,86,0.00,,,0.00,WeatherCatV1.15B25,2013-02-08 01:20:00,
2013-02-07 17:23:00,47.5,40.9,30.21,ENE,67,0.0,0.0,78,0.00,,,0.06,LWC V2.11 B50,2013-02-08 01:23:00,
2013-02-07 17:25:00,50.4,46.4,30.24,SE,139,1.6,0.0,86,0.00,,,0.00,WeatherCatV1.15B25,2013-02-08 01:25:00,
2013-02-07 17:28:00,46.9,40.4,30.22,ENE,67,0.0,0.0,78,0.00,,,0.06,LWC V2.11 B50,2013-02-08 01:28:00,
2013-02-07 17:30:00,50.4,46.4,30.24,SE,139,1.6,0.0,86,0.00,,,0.00,WeatherCatV1.15B25,2013-02-08 01:30:00,
2013-02-07 17:33:00,46.6,40.1,30.22,NE,45,0.0,0.0,78,0.00,,,0.06,LWC V2.11 B50,2013-02-08 01:33:00,
2013-02-07 17:35:00,50.4,46.4,30.24,SE,139,1.6,0.0,86,0.00,,,0.00,WeatherCatV1.15B25,2013-02-08 01:35:00,
2013-02-07 17:38:00,46.0,39.6,30.22,East,90,0.0,0.0,78,0.00,,,0.06,LWC V2.11 B50,2013-02-08 01:38:00,
2013-02-07 17:40:00,50.4,46.4,30.24,SE,139,1.6,0.0,86,0.00,,,0.00,WeatherCatV1.15B25,2013-02-08 01:40:00,
2013-02-07 17:43:00,45.7,39.6,30.23,NE,45,0.0,0.0,79,0.00,,,0.06,LWC V2.11 B50,2013-02-08 01:43:00,
2013-02-07 17:45:00,50.4,46.4,30.24,SE,139,1.6,0.0,86,0.00,,,0.00,WeatherCatV1.15B25,2013-02-08 01:45:00,
2013-02-07 17:49:00,45.1,39.0,30.23,ENE,67,0.0,0.0,79,0.00,,,0.06,LWC V2.11 B50,2013-02-08 01:49:00,
2013-02-07 17:50:00,50.4,46.4,30.24,SE,139,1.6,0.0,86,0.00,,,0.00,WeatherCatV1.15B25,2013-02-08 01:50:00,
2013-02-07 17:54:00,44.8,38.7,30.23,East,90,0.0,0.0,79,0.00,,,0.06,LWC V2.11 B50,2013-02-08 01:54:00,
2013-02-07 17:55:00,50.4,46.4,30.24,SE,139,1.6,0.0,86,0.00,,,0.00,WeatherCatV1.15B25,2013-02-08 01:55:00,
2013-02-07 17:59:00,44.4,38.7,30.23,East,90,0.0,0.0,80,0.00,,,0.06,LWC V2.11 B50,2013-02-08 01:59:00,
2013-02-07 18:00:00,50.4,46.4,30.24,SE,139,1.6,0.0,86,0.00,,,0.00,WeatherCatV1.15B25,2013-02-08 02:00:00,
2013-02-07 18:04:00,43.9,38.1,30.23,ENE,67,0.0,0.0,80,0.00,,,0.06,LWC V2.11 B50,2013-02-08 02:04:00,
2013-02-07 18:05:00,50.4,46.4,30.24,SE,139,1.6,0.0,86,0.00,,,0.00,WeatherCatV1.15B25,2013-02-08 02:05:00,
2013-02-07 18:09:00,43.5,38.1,30.24,ENE,67,0.0,0.0,81,0.00,,,0.06,LWC V2.11 B50,2013-02-08 02:09:00,
2013-02-07 18:10:00,50.4,46.4,30.24,SE,139,1.6,0.0,86,0.00,,,0.00,WeatherCatV1.15B25,2013-02-08 02:10:00,
2013-02-07 18:14:00,43.3,37.9,30.24,East,90,0.0,0.0,81,0.00,,,0.06,LWC V2.11 B50,2013-02-08 02:14:00,
2013-02-07 18:15:00,50.4,46.4,30.24,SE,139,1.6,0.0,86,0.00,,,0.00,WeatherCatV1.15B25,2013-02-08 02:15:00,
2013-02-07 18:19:00,43.0,37.5,30.25,ESE,112,0.0,0.0,81,0.00,,,0.06,LWC V2.11 B50,2013-02-08 02:19:00,
2013-02-07 18:20:00,50.4,46.4,30.24,SE,139,1.6,0.0,86,0.00,,,0.00,WeatherCatV1.15B25,2013-02-08 02:20:00,
2013-02-07 18:24:00,42.6,37.5,30.25,East,90,0.0,0.0,82,0.00,,,0.06,LWC V2.11 B50,2013-02-08 02:24:00,
2013-02-07 18:25:00,50.4,46.4,30.24,SE,139,1.6,0.0,86,0.00,,,0.00,WeatherCatV1.15B25,2013-02-08 02:25:00,
2013-02-07 18:29:00,42.4,36.9,30.25,ENE,67,0.0,0.0,82,0.00,,,0.06,LWC V2.11 B50,2013-02-08 02:29:00,
2013-02-07 18:30:00,50.4,46.4,30.24,SE,139,1.6,0.0,86,0.00,,,0.00,WeatherCatV1.15B25,2013-02-08 02:30:00,
2013-02-07 18:34:00,41.9,37.1,30.26,ENE,67,0.0,0.0,83,0.00,,,0.06,LWC V2.11 B50,2013-02-08 02:34:00,
2013-02-07 18:35:00,50.4,46.4,30.24,SE,139,1.6,0.0,86,0.00,,,0.00,WeatherCatV1.15B25,2013-02-08 02:35:00,
2013-02-07 18:39:00,41.7,36.9,30.26,ENE,67,0.0,0.0,83,0.00,,,0.06,LWC V2.11 B50,2013-02-08 02:39:00,
2013-02-07 18:40:00,50.4,46.4,30.24,SE,139,1.6,0.0,86,0.00,,,0.00,WeatherCatV1.15B25,2013-02-08 02:40:00,
2013-02-07 18:44:00,41.5,36.7,30.26,ENE,67,0.0,0.0,83,0.00,,,0.06,LWC V2.11 B50,2013-02-08 02:44:00,
2013-02-07 18:45:00,50.4,46.4,30.24,SE,139,1.6,0.0,86,0.00,,,0.00,WeatherCatV1.15B25,2013-02-08 02:45:00,
2013-02-07 18:49:00,41.4,36.8,30.26,East,90,0.0,0.0,84,0.00,,,0.06,LWC V2.11 B50,2013-02-08 02:49:00,
2013-02-07 18:50:00,50.4,46.4,30.24,SE,139,1.6,0.0,86,0.00,,,0.00,WeatherCatV1.15B25,2013-02-08 02:50:00,
2013-02-07 18:54:00,41.2,36.6,30.26,East,90,0.0,0.0,84,0.00,,,0.06,LWC V2.11 B50,2013-02-08 02:54:00,
2013-02-07 18:55:00,50.4,46.4,30.24,SE,139,1.6,0.0,86,0.00,,,0.00,WeatherCatV1.15B25,2013-02-08 02:55:00,
2013-02-07 18:59:00,40.8,36.6,30.26,ESE,112,0.0,0.0,85,0.00,,,0.06,LWC V2.11 B50,2013-02-08 02:59:00,
2013-02-07 19:00:00,50.4,46.4,30.24,SE,139,1.6,0.0,86,0.00,,,0.00,WeatherCatV1.15B25,2013-02-08 03:00:00,
2013-02-07 19:05:00,40.8,36.6,30.26,East,90,0.0,0.0,85,0.00,,,0.06,LWC V2.11 B50,2013-02-08 03:05:00,
2013-02-07 19:10:00,40.6,36.4,30.26,ESE,112,0.0,0.0,85,0.00,,,0.06,LWC V2.11 B50,2013-02-08 03:10:00,
2013-02-07 19:15:00,40.6,36.7,30.26,East,90,0.0,0.0,86,0.00,,,0.06,LWC V2.11 B50,2013-02-08 03:15:00,
2013-02-07 19:20:00,40.3,36.1,30.27,East,90,0.0,0.0,85,0.00,,,0.06,LWC V2.11 B50,2013-02-08 03:20:00,
2013-02-07 19:25:00,40.1,36.2,30.27,East,90,0.0,0.0,86,0.00,,,0.06,LWC V2.11 B50,2013-02-08 03:25:00,
2013-02-07 19:30:00,39.9,36.0,30.27,ESE,112,0.0,0.0,86,0.00,,,0.06,LWC V2.11 B50,2013-02-08 03:30:00,
2013-02-07 19:35:00,39.9,36.0,30.28,East,90,0.0,0.0,86,0.00,,,0.06,LWC V2.11 B50,2013-02-08 03:35:00,
2013-02-07 19:40:00,39.7,35.9,30.28,East,90,0.0,0.0,86,0.00,,,0.06,LWC V2.11 B50,2013-02-08 03:40:00,
2013-02-07 19:45:00,39.7,36.2,30.28,East,90,0.0,0.0,87,0.00,,,0.06,LWC V2.11 B50,2013-02-08 03:45:00,
2013-02-07 19:50:00,39.4,35.8,30.28,East,90,0.0,0.0,87,0.00,,,0.06,LWC V2.11 B50,2013-02-08 03:50:00,
2013-02-07 19:55:00,39.4,35.8,30.28,ESE,112,0.0,0.0,87,0.00,,,0.06,LWC V2.11 B50,2013-02-08 03:55:00,
2013-02-07 20:00:00,39.4,35.8,30.29,ENE,67,0.0,0.0,87,0.00,,,0.06,LWC V2.11 B50,2013-02-08 04:00:00,
2013-02-07 20:05:00,39.4,36.1,30.28,ESE,112,0.0,0.0,88,0.00,,,0.06,LWC V2.11 B50,2013-02-08 04:05:00,
2013-02-07 20:10:00,39.0,35.7,30.29,ENE,67,0.0,0.0,88,0.00,,,0.06,LWC V2.11 B50,2013-02-08 04:10:00,
2013-02-07 20:15:00,39.0,35.7,30.29,ENE,67,0.0,0.0,88,0.00,,,0.06,LWC V2.11 B50,2013-02-08 04:15:00,
2013-02-07 20:20:00,50.4,46.4,30.24,SE,139,1.6,0.0,86,0.00,,,0.00,WeatherCatV1.15B25,2013-02-08 04:20:00,
2013-02-07 20:21:00,39.0,35.7,30.29,ESE,112,0.0,0.0,88,0.00,,,0.06,LWC V2.11 B50,2013-02-08 04:21:00,
2013-02-07 20:25:00,50.4,46.4,30.24,SE,139,1.6,0.0,86,0.00,,,0.00,WeatherCatV1.15B25,2013-02-08 04:25:00,
2013-02-07 20:26:00,39.0,36.0,30.29,East,90,0.0,0.0,89,0.00,,,0.06,LWC V2.11 B50,2013-02-08 04:26:00,
2013-02-07 20:30:00,50.4,46.4,30.24,SE,139,1.6,0.0,86,0.00,,,0.00,WeatherCatV1.15B25,2013-02-08 04:30:00,
2013-02-07 20:31:00,39.0,36.0,30.29,ENE,67,0.0,0.0,89,0.00,,,0.06,LWC V2.11 B50,2013-02-08 04:31:00,
2013-02-07 20:35:00,50.4,46.4,30.24,SE,139,1.6,0.0,86,0.00,,,0.00,WeatherCatV1.15B25,2013-02-08 04:35:00,
2013-02-07 20:36:00,38.8,35.9,30.29,East,90,0.0,0.0,89,0.00,,,0.06,LWC V2.11 B50,2013-02-08 04:36:00,
2013-02-07 20:40:00,50.4,46.4,30.24,SE,139,1.6,0.0,86,0.00,,,0.00,WeatherCatV1.15B25,2013-02-08 04:40:00,
2013-02-07 20:41:00,38.8,35.9,30.29,East,90,0.0,0.0,89,0.00,,,0.06,LWC V2.11 B50,2013-02-08 04:41:00,
2013-02-07 20:45:00,50.4,46.4,30.24,SE,139,1.6,0.0,86,0.00,,,0.00,WeatherCatV1.15B25,2013-02-08 04:45:00,
2013-02-07 20:46:00,38.7,35.7,30.29,East,90,0.0,0.0,89,0.00,,,0.06,LWC V2.11 B50,2013-02-08 04:46:00,
2013-02-07 20:50:00,50.4,46.4,30.24,SE,139,1.6,0.0,86,0.00,,,0.00,WeatherCatV1.15B25,2013-02-08 04:50:00,
2013-02-07 20:51:00,38.5,35.5,30.29,East,90,0.0,0.0,89,0.00,,,0.06,LWC V2.11 B50,2013-02-08 04:51:00,
2013-02-07 20:55:00,50.4,46.4,30.24,SE,139,1.6,0.0,86,0.00,,,0.00,WeatherCatV1.15B25,2013-02-08 04:55:00,
2013-02-07 20:56:00,38.5,35.5,30.30,East,90,0.0,0.0,89,0.00,,,0.06,LWC V2.11 B50,2013-02-08 04:56:00,
2013-02-07 21:00:00,38.5,35.5,30.30,ESE,112,0.0,0.0,89,0.00,,,0.06,LWC V2.11 B50,2013-02-08 05:00:00,
2013-02-07 21:05:00,38.3,35.3,30.30,ESE,112,0.0,0.0,89,0.00,,,0.06,LWC V2.11 B50,2013-02-08 05:05:00,
2013-02-07 21:10:00,38.1,35.1,30.30,ESE,112,0.0,0.0,89,0.00,,,0.06,LWC V2.11 B50,2013-02-08 05:10:00,
2013-02-07 21:15:00,38.1,35.1,30.30,East,90,0.0,0.0,89,0.00,,,0.06,LWC V2.11 B50,2013-02-08 05:15:00,
2013-02-07 21:20:00,37.9,35.0,30.30,ESE,112,0.0,0.0,89,0.00,,,0.06,LWC V2.11 B50,2013-02-08 05:20:00,
2013-02-07 21:25:00,37.9,35.2,30.31,ENE,67,0.0,0.0,90,0.00,,,0.06,LWC V2.11 B50,2013-02-08 05:25:00,
2013-02-07 21:30:00,37.9,35.2,30.31,SE,135,0.0,0.0,90,0.00,,,0.06,LWC V2.11 B50,2013-02-08 05:30:00,
2013-02-07 21:35:00,37.8,35.1,30.31,SE,135,0.0,0.0,90,0.00,,,0.06,LWC V2.11 B50,2013-02-08 05:35:00,
2013-02-07 21:40:00,37.8,35.1,30.31,ESE,112,0.0,0.0,90,0.00,,,0.06,LWC V2.11 B50,2013-02-08 05:40:00,
2013-02-07 21:45:00,37.6,34.9,30.31,ESE,112,0.0,0.0,90,0.00,,,0.06,LWC V2.11 B50,2013-02-08 05:45:00,
2013-02-07 21:50:00,37.6,34.9,30.32,East,90,0.0,0.0,90,0.00,,,0.06,LWC V2.11 B50,2013-02-08 05:50:00,
2013-02-07 21:55:00,37.6,34.9,30.31,East,90,0.0,0.0,90,0.00,,,0.06,LWC V2.11 B50,2013-02-08 05:55:00,
2013-02-07 22:00:00,37.4,34.7,30.32,East,90,0.0,0.0,90,0.00,,,0.06,LWC V2.11 B50,2013-02-08 06:00:00,
2013-02-07 22:05:00,37.2,34.5,30.32,ESE,112,0.0,0.0,90,0.00,,,0.06,LWC V2.11 B50,2013-02-08 06:05:00,
2013-02-07 22:10:00,50.4,46.4,30.24,SE,139,1.6,0.0,86,0.00,,,0.00,WeatherCatV1.15B25,2013-02-08 06:10:00,
2013-02-07 22:11:00,37.2,34.8,30.32,ESE,112,0.0,0.0,91,0.00,,,0.06,LWC V2.11 B50,2013-02-08 06:11:00,
2013-02-07 22:15:00,50.4,46.4,30.24,SE,139,1.6,0.0,86,0.00,,,0.00,WeatherCatV1.15B25,2013-02-08 06:15:00,
2013-02-07 22:16:00,37.2,34.8,30.32,East,90,0.0,0.0,91,0.00,,,0.06,LWC V2.11 B50,2013-02-08 06:16:00,
2013-02-07 22:20:00,50.4,46.4,30.24,SE,139,1.6,0.0,86,0.00,,,0.00,WeatherCatV1.15B25,2013-02-08 06:20:00,
2013-02-07 22:21:00,37.0,34.6,30.33,East,90,0.0,0.0,91,0.00,,,0.06,LWC V2.11 B50,2013-02-08 06:21:00,
2013-02-07 22:25:00,50.4,46.4,30.24,SE,139,1.6,0.0,86,0.00,,,0.00,WeatherCatV1.15B25,2013-02-08 06:25:00,
2013-02-07 22:26:00,37.0,34.6,30.33,East,90,0.0,0.0,91,0.00,,,0.06,LWC V2.11 B50,2013-02-08 06:26:00,
2013-02-07 22:30:00,50.4,46.4,30.24,SE,139,1.6,0.0,86,0.00,,,0.00,WeatherCatV1.15B25,2013-02-08 06:30:00,
2013-02-07 22:31:00,36.9,34.4,30.33,ESE,112,0.0,0.0,91,0.00,,,0.06,LWC V2.11 B50,2013-02-08 06:31:00,
2013-02-07 22:35:00,50.4,46.4,30.24,SE,139,1.6,0.0,86,0.00,,,0.00,WeatherCatV1.15B25,2013-02-08 06:35:00,
2013-02-07 22:36:00,36.9,34.4,30.34,ENE,67,0.0,0.0,91,0.00,,,0.06,LWC V2.11 B50,2013-02-08 06:36:00,
2013-02-07 22:40:00,50.4,46.4,30.24,SE,139,1.6,0.0,86,0.00,,,0.00,WeatherCatV1.15B25,2013-02-08 06:40:00,
2013-02-07 22:41:00,36.9,34.4,30.33,SE,135,0.0,0.0,91,0.00,,,0.06,LWC V2.11 B50,2013-02-08 06:41:00,
2013-02-07 22:45:00,50.4,46.4,30.24,SE,139,1.6,0.0,86,0.00,,,0.00,WeatherCatV1.15B25,2013-02-08 06:45:00,
2013-02-07 22:46:00,36.9,34.4,30.33,ENE,67,0.0,0.0,91,0.00,,,0.06,LWC V2.11 B50,2013-02-08 06:46:00,
2013-02-07 22:50:00,50.4,46.4,30.24,SE,139,1.6,0.0,86,0.00,,,0.00,WeatherCatV1.15B25,2013-02-08 06:50:00,
2013-02-07 22:51:00,36.7,34.2,30.33,East,90,0.0,0.0,91,0.00,,,0.06,LWC V2.11 B50,2013-02-08 06:51:00,
2013-02-07 22:55:00,50.4,46.4,30.24,SE,139,1.6,0.0,86,0.00,,,0.00,WeatherCatV1.15B25,2013-02-08 06:55:00,
2013-02-07 22:56:00,36.7,34.2,30.34,ENE,67,0.0,0.0,91,0.00,,,0.06,LWC V2.11 B50,2013-02-08 06:56:00,
2013-02-07 23:00:00,50.4,46.4,30.24,SE,139,1.6,0.0,86,0.00,,,0.00,WeatherCatV1.15B25,2013-02-08 07:00:00,
2013-02-07 23:01:00,36.7,34.2,30.33,ENE,67,0.0,0.0,91,0.00,,,0.06,LWC V2.11 B50,2013-02-08 07:01:00,
2013-02-07 23:05:00,50.4,46.4,30.24,SE,139,1.6,0.0,86,0.00,,,0.00,WeatherCatV1.15B25,2013-02-08 07:05:00,
2013-02-07 23:06:00,36.7,34.2,30.33,ENE,67,0.0,0.0,91,0.00,,,0.06,LWC V2.11 B50,2013-02-08 07:06:00,
2013-02-07 23:10:00,50.4,46.4,30.24,SE,139,1.6,0.0,86,0.00,,,0.00,WeatherCatV1.15B25,2013-02-08 07:10:00,
2013-02-07 23:11:00,36.7,34.2,30.34,East,90,0.0,0.0,91,0.00,,,0.06,LWC V2.11 B50,2013-02-08 07:11:00,
2013-02-07 23:15:00,50.4,46.4,30.24,SE,139,1.6,0.0,86,0.00,,,0.00,WeatherCatV1.15B25,2013-02-08 07:15:00,
2013-02-07 23:16:00,36.5,34.3,30.34,East,90,0.0,0.0,92,0.00,,,0.06,LWC V2.11 B50,2013-02-08 07:16:00,
2013-02-07 23:20:00,50.4,46.4,30.24,SE,139,1.6,0.0,86,0.00,,,0.00,WeatherCatV1.15B25,2013-02-08 07:20:00,
2013-02-07 23:21:00,36.5,34.3,30.34,ESE,112,0.0,0.0,92,0.00,,,0.06,LWC V2.11 B50,2013-02-08 07:21:00,
2013-02-07 23:25:00,50.4,46.4,30.24,SE,139,1.6,0.0,86,0.00,,,0.00,WeatherCatV1.15B25,2013-02-08 07:25:00,
2013-02-07 23:27:00,36.5,34.3,30.34,East,90,0.0,0.0,92,0.00,,,0.06,LWC V2.11 B50,2013-02-08 07:27:00,
2013-02-07 23:30:00,50.4,46.4,30.24,SE,139,1.6,0.0,86,0.00,,,0.00,WeatherCatV1.15B25,2013-02-08 07:30:00,
2013-02-07 23:32:00,36.5,34.3,30.34,East,90,0.0,0.0,92,0.00,,,0.06,LWC V2.11 B50,2013-02-08 07:32:00,
2013-02-07 23:35:00,50.4,46.4,30.24,SE,139,1.6,0.0,86,0.00,,,0.00,WeatherCatV1.15B25,2013-02-08 07:35:00,
2013-02-07 23:37:00,36.3,34.2,30.35,ESE,112,0.0,0.0,92,0.00,,,0.06,LWC V2.11 B50,2013-02-08 07:37:00,
2013-02-07 23:40:00,50.4,46.4,30.24,SE,139,1.6,0.0,86,0.00,,,0.00,WeatherCatV1.15B25,2013-02-08 07:40:00,
2013-02-07 23:42:00,36.3,34.2,30.35,ESE,112,0.0,0.0,92,0.00,,,0.06,LWC V2.11 B50,2013-02-08 07:42:00,
2013-02-07 23:45:00,50.4,46.4,30.24,SE,139,1.6,0.0,86,0.00,,,0.00,WeatherCatV1.15B25,2013-02-08 07:45:00,
2013-02-07 23:47:00,36.3,34.2,30.35,SE,135,0.0,0.0,92,0.00,,,0.06,LWC V2.11 B50,2013-02-08 07:47:00,
2013-02-07 23:50:00,50.4,46.4,30.24,SE,139,1.6,0.0,86,0.00,,,0.00,WeatherCatV1.15B25,2013-02-08 07:50:00,
2013-02-07 23:52:00,36.3,34.2,30.36,SE,135,0.0,0.0,92,0.00,,,0.06,LWC V2.11 B50,2013-02-08 07:52:00,
2013-02-07 23:55:00,50.4,46.4,30.24,SE,139,1.6,0.0,86,0.00,,,0.00,WeatherCatV1.15B25,2013-02-08 07:55:00,
2013-02-07 23:57:00,36.3,34.2,30.36,East,90,0.0,0.0,92,0.00,,,0.06,LWC V2.11 B50,2013-02-08 07:57:00,